(2020 TM6) |
Classification: Apollo [NEO] SPK-ID: 54068387 |
[ hide orbit diagram ]
For accurate long-term ephemerides, please instead use our Horizons system.This orbit viewer was implemented using two-body methods, and hence should not be used for determining accurate long-term trajectories (over several years or decades) or planetary encounter circumstances.
Orbital Elements at Epoch 2459000.5 (2020-May-31.0) TDB
Reference: JPL 9 (heliocentric ecliptic J2000)
Element | Value | Uncertainty (1-sigma) | Units |
e | .203765377857637 | 0.00028608 | |
a | 1.198145669272162 | 0.00041849 | au |
q | .9540050642444283 | 9.5823e-06 | au |
i | 14.0685583338728 | 0.015865 | deg |
node | 205.6171028134629 | 0.00012427 | deg |
peri | 233.2641373292212 | 0.017094 | deg |
M | 217.8943703989575 | 0.089936 | deg |
tp | 2459189.591341394186 (2020-Dec-06.09134139) | 0.020604 | TDB |
period | 479.0301629359772 1.31 | 0.25097 0.0006871 | d yr |
n | .7515184384080514 | 0.00039374 | deg/d |
Q | 1.442286274299895 | 0.00050376 | au |
|
| | Orbit Determination Parameters
Additional Information
|
[ show covariance matrix ]
Physical Parameter Table
Parameter |
Symbol |
Value |
Units |
Sigma |
Reference |
Notes |
absolute magnitude |
H |
26.118 |
|
.3585 |
9 |
autocmod 2.8 |
|
[ show close-approach data ]
|